Location: Betra
(48.4113°N, 8.6634°E)
Time: 17:09:42
(UTC+00:00)

Resurs 1-4 Rocket - Pass Details

Date: 10 August 2024
Orbit: 798 x 813 km, 98.7° (Epoch: 06 September)

Event Time Altitude Azimuth Distance (km) Brightness Sun altitude
Rises 02:33:41 0° 8° (N) 3,347 6.2 -14.3°
Reaches altitude 10° 02:36:13 10° 359° (N) 2,409 5.2 -14.0°
Maximum altitude 02:40:56 34° 296° (WNW) 1,324 3.0 -13.5°
Enters shadow 02:44:13 17° 243° (WSW) 1,920 3.5 -13.1°
